This demonstration page uses our WeatherBlox Daily Observations layout. Learn more.

Left ArrowRight Arrow

39.01783, -85.05884

Hourly Observations for February 13, 2019

Temp ( °F °C ) Dew Point ( °F °C ) Humidity (%) Winds ( mph kmh ) Pressure ( in mb ) Visibility ( mi km ) Precip ( " mm )
12:52 am 00:52 Cloudy with Light Snow 31 -0.6 22 -5.6 69 69 WSW 13 20 29.88 1012 8 13 0.00 0.03
1:52 am 01:52 Cloudy with Light Snow 31 -0.6 21 -6.1 67 67 WSW 14 22 29.89 1012 9 14 0.00 0.03
2:52 am 02:52 Windy with Snow Likely 31 -0.6 19 -7.2 61 61 WSW 22 35 29.89 1012 9 14 0.00 0.03
3:52 am 03:52 Windy with Snow Likely 30 -1.1 18 -7.8 61 61 W 23 37 29.90 1013 9 14 0.00 0.03
4:52 am 04:52 Mostly Cloudy 28 -2.2 17 -8.3 63 63 WSW 20 31 29.92 1013 10 16 0.00 0.03
5:52 am 05:52 Cloudy 28 -2.2 16 -8.9 60 60 WSW 20 31 29.95 1014 10 16 0.00 0.00
6:52 am 06:52 Mostly Cloudy 27 -2.8 16 -8.9 63 63 W 13 20 29.98 1015 10 16 0.00 0.00
7:37 am 07:37 Cloudy 27 -2.8 16 -8.9 63 63 W 22 35 30.03 1017 10 16 0.00 0.00
7:52 am 07:52 Cloudy 26 -3.3 16 -8.9 66 66 WSW 15 24 30.00 1016 10 16 0.00 0.00
8:52 am 08:52 Mostly Cloudy 26 -3.3 16 -8.9 66 66 W 18 30 30.03 1017 10 16 0.00 0.00
9:52 am 09:52 Mostly Cloudy 27 -2.8 15 -9.4 61 61 W 24 39 30.05 1018 10 16 0.00 0.00
10:52 am 10:52 Partly Cloudy 29 -1.7 16 -8.9 58 58 WSW 18 30 30.07 1018 10 16 0.00 0.00
11:52 am 11:52 Mostly Cloudy 32 0 18 -7.8 56 56 W 21 33 30.07 1018 10 16 0.00 0.00
12:52 pm 12:52 Mostly Sunny 34 1.1 20 -6.7 56 56 W 16 26 30.06 1018 10 16 0.00 0.00
1:52 pm 13:52 Partly Cloudy 35 1.7 19 -7.2 52 52 WSW 18 30 30.06 1018 10 16 0.00 0.00
2:52 pm 14:52 Partly Cloudy 35 1.7 20 -6.7 54 54 WSW 14 22 30.06 1018 10 16 0.00 0.00
3:52 pm 15:52 Mostly Cloudy 35 1.7 19 -7.2 52 52 W 18 30 30.06 1018 10 16 0.00 0.00
4:52 pm 16:52 Mostly Cloudy 36 2.2 19 -7.2 50 50 WSW 14 22 30.06 1018 10 16 0.00 0.00
5:52 pm 17:52 Mostly Cloudy 35 1.7 20 -6.7 54 54 WSW 6 9 30.06 1018 10 16 0.00 0.00
6:52 pm 18:52 Mostly Clear 33 0.6 20 -6.7 58 58 SW 7 11 30.07 1018 10 16 0.00 0.00
7:52 pm 19:52 Mostly Clear 32 0 20 -6.7 61 61 SW 5 7 30.06 1018 10 16 0.00 0.00
8:52 pm 20:52 Mostly Cloudy 32 0 20 -6.7 61 61 SSW 6 9 30.05 1018 10 16 0.00 0.00
9:52 pm 21:52 Mostly Cloudy 32 0 20 -6.7 61 61 SSW 7 11 30.06 1018 10 16 0.00 0.00
10:52 pm 22:52 Cloudy 33 0.6 22 -5.6 64 64 SSW 7 11 30.04 1017 10 16 0.00 0.00
11:52 pm 23:52 Cloudy 34 1.1 22 -5.6 61 61 SSW 8 13 30.04 1017 10 16 0.00 0.00

Powered by AerisWeather